Wind_Speed
10 10 10 9 10 10 10 10 9 9 9 8 8 8 7 7 7 7 6 6 6 6 5 5 5 6 6 6 7 7 7 7 7 8 8 9 9 10 10 10 10 10 10
10 10 10 10 10 11 10 10 10 10 10 9 8 9 8 8 7 7 7 6 6 6 6 5 5 6 5 6 7 7 7 7 7 7 8 8 9 9 10 10 10 11 11
10 10 10 10 10 10 11 11 10 10 10 10 9 8 8 8 8 8 7 7 6 6 6 6 6 5 5 6 6 7 7 7 7 8 9 9 10 10 11 11 11 12 12
11 11 11 11 10 10 11 11 11 11 11 11 10 9 9 9 9 8 7 7 6 6 6 5 6 6 6 6 7 7 8 8 9 9 10 10 11 12 12 13 13 13 14
11 11 11 11 11 11 11 11 11 11 11 11 11 11 10 9 9 9 8 7 7 6 5 5 6 6 7 8 8 9 9 10 10 11 11 12 13 14 14 14 14 15 16
11 11 12 12 11 11 11 11 11 11 12 11 11 11 11 11 10 9 9 9 8 7 7 7 7 8 9 9 9 10 10 11 11 12 12 13 14 15 15 15 16 16 17
12 11 12 12 12 12 12 11 11 11 11 11 11 12 12 12 12 11 10 11 10 9 9 9 10 10 10 11 11 11 11 11 12 13 13 14 15 16 16 17 17 17 17
12 12 12 12 12 12 12 12 12 11 11 11 12 12 13 13 13 13 12 12 12 11 11 12 12 12 12 12 12 12 12 12 13 13 14 15 15 16 17 17 17 18 19
13 13 13 13 12 12 12 13 12 12 11 12 12 13 13 13 14 14 13 13 13 13 13 13 13 14 14 14 14 14 14 14 15 15 16 16 17 17 18 18 19 20 21
12 13 13 13 13 13 12 13 13 13 13 13 13 13 13 13 13 14 14 14 15 14 14 15 15 15 15 15 15 15 15 15 16 16 17 18 18 19 19 19 20 21 22
13 13 13 13 13 13 13 13 13 14 14 14 14 14 14 14 14 14 14 15 15 15 16 16 16 16 15 15 15 16 16 17 17 17 18 19 19 20 20 21 22 22 23
14 15 15 14 14 14 13 13 13 14 14 14 15 15 15 15 16 15 16 15 15 15 16 16 16 16 16 16 17 17 17 18 18 18 19 20 21 21 22 22 23 23 24
15 15 16 16 15 15 15 15 15 14 14 15 15 16 16 16 16 17 17 17 17 17 17 17 17 17 16 16 17 17 17 18 19 20 21 21 22 22 23 24 24 24 25
17 16 16 16 17 17 16 16 15 15 14 15 15 16 16 16 17 17 18 19 19 19 18 18 18 17 17 18 18 18 19 20 20 21 22 22 22 23 24 24 24 25 26
18 18 17 17 17 18 17 17 17 16 16 16 17 17 18 18 18 18 18 19 19 20 19 19 19 19 19 19 19 19 20 20 20 21 22 22 23 24 24 24 25 26 27
19 19 18 18 18 18 18 18 18 18 18 18 18 18 18 18 18 18 18 18 18 19 19 19 20 20 20 20 20 20 20 21 21 22 23 23 23 24 25 26 27 28 29
20 20 19 19 19 19 19 19 19 19 19 18 18 18 18 18 18 19 19 18 18 19 19 19 20 20 21 21 21 21 22 22 23 23 23 24 25 25 26 28 28 30 31
21 21 20 20 20 20 20 20 20 20 19 19 19 19 19 19 20 20 20 20 19 20 20 21 21 21 22 23 23 23 24 24 24 24 24 25 26 27 28 29 30 31 33
23 22 22 22 21 21 21 21 21 21 21 21 21 21 20 21 21 21 21 21 21 21 21 22 23 23 23 24 24 25 25 26 25 25 26 26 27 28 29 30 32 33 34
23 23 23 23 23 22 22 22 22 22 22 22 22 22 22 22 22 22 22 23 23 23 24 23 24 25 25 25 25 25 26 26 26 27 27 28 28 30 31 32 33 34 35
24 24 24 23 24 24 23 23 23 23 23 23 23 23 23 23 23 23 23 24 24 25 25 26 26 26 26 25 26 26 26 26 27 27 28 29 30 31 32 33 35 35 36
24 24 24 24 24 24 24 24 24 24 24 24 23 24 24 24 25 25 26 25 25 25 26 26 26 27 27 27 27 28 28 27 27 28 29 31 32 33 33 35 35 36 36
25 25 25 25 25 25 24 24 25 25 25 25 25 25 25 25 26 26 27 27 27 27 27 27 27 26 27 27 27 28 28 28 28 29 30 32 33 33 34 35 35 36 36
26 26 26 26 26 26 25 25 26 26 27 27 27 27 27 27 28 28 28 28 28 28 28 28 27 27 27 27 28 28 28 29 30 30 32 32 33 34 35 35 36 36 37
28 28 28 27 27 28 28 28 28 29 28 28 28 28 28 29 29 29 28 28 28 28 28 28 28 29 29 29 29 29 29 29 30 31 32 33 34 34 35 35 36 37 38
29 29 29 29 29 29 29 29 28 28 29 29 29 29 29 29 29 29 29 29 29 29 29 29 30 30 30 30 30 30 30 31 32 33 33 34 34 35 36 36 37 38 39
Wind_Direction
235 236 235 231 227 228 229 229 223 216 215 215 217 214 213 217 223 227 231 234 237 242 248 253 259 265 266 271 277 281 280 286 294 298 300 305 311 314 318 318 320 321 320
235 234 233 234 230 230 231 228 223 221 222 224 223 217 217 220 227 231 236 240 242 245 250 257 264 267 271 277 281 285 286 289 295 298 301 307 311 316 319 317 316 318 317
237 236 235 234 230 231 232 232 230 226 226 226 224 221 222 225 230 235 238 240 245 246 250 259 266 270 274 279 284 286 288 290 295 296 299 304 308 313 314 313 311 312 311
239 238 237 234 231 231 230 232 233 231 227 227 228 229 230 230 233 234 234 238 242 242 249 261 267 273 277 281 282 284 286 289 291 294 297 302 307 308 309 308 305 305 307
239 236 237 233 230 229 229 230 231 230 228 228 229 231 230 229 229 229 229 234 236 241 252 263 271 277 277 277 280 284 286 288 290 295 298 301 304 306 307 306 305 303 305
238 234 235 235 231 230 230 229 230 230 230 232 231 232 231 229 228 230 230 233 238 245 255 266 274 280 281 280 282 287 287 287 289 293 297 301 304 305 306 306 306 306 306
236 236 236 234 231 229 231 232 231 231 231 232 233 234 233 232 232 232 237 240 243 248 258 269 274 279 282 284 284 287 290 290 291 296 300 302 304 306 305 305 305 306 306
238 239 236 235 232 228 229 231 231 230 231 234 236 235 233 232 235 237 241 245 250 254 262 271 274 278 282 284 284 285 288 290 293 297 299 301 304 305 306 306 305 305 306
241 240 235 235 234 233 233 231 231 231 232 234 233 235 236 237 240 243 246 248 253 257 265 272 274 277 281 281 283 283 285 288 290 293 296 300 303 305 307 306 306 307 307
240 237 234 233 233 233 234 234 235 236 236 236 235 236 238 240 243 246 248 253 256 259 264 269 273 277 278 280 281 282 285 287 289 291 294 298 301 303 305 305 307 307 307
238 235 235 235 233 234 236 238 240 239 240 239 238 238 240 243 246 250 252 255 258 262 265 269 273 275 275 277 279 282 285 287 290 291 293 297 300 302 302 304 306 307 306
239 238 237 237 237 236 238 240 242 243 242 240 241 241 243 246 249 251 255 258 261 263 265 268 271 273 275 278 280 283 285 287 289 291 294 297 298 299 301 303 305 307 306
240 240 241 240 240 241 242 245 245 244 245 244 244 244 246 249 251 253 257 260 262 264 266 268 269 271 274 277 279 282 284 287 289 291 293 296 298 299 300 302 303 305 306
242 242 243 244 243 242 245 247 247 247 249 249 249 247 247 251 253 256 260 261 262 265 266 267 268 271 274 276 279 281 283 285 289 290 293 295 297 298 300 301 302 303 304
242 243 245 246 245 243 244 247 248 249 251 251 251 249 250 253 255 259 264 263 264 265 266 268 268 270 274 277 280 282 284 285 287 290 291 293 297 298 299 300 302 304 306
244 244 246 248 246 244 243 246 247 250 251 250 252 252 250 252 255 259 265 265 266 268 268 268 268 270 274 278 282 284 286 288 290 292 293 294 296 298 297 298 301 303 306
244 244 246 247 247 246 247 249 250 251 252 253 254 254 254 254 258 261 263 266 268 270 270 271 271 272 275 278 282 284 286 288 291 293 294 294 296 296 297 299 300 302 305
242 244 245 246 248 248 248 249 250 252 253 253 255 256 257 257 260 264 265 267 269 270 271 271 272 274 276 278 281 283 285 289 291 292 294 295 296 297 298 299 301 303 305
244 245 246 247 248 249 250 250 251 252 252 254 256 257 258 259 261 264 266 267 269 271 272 273 272 274 276 278 280 282 284 288 291 292 293 295 297 299 299 299 301 303 305
246 247 247 248 248 249 251 252 253 253 253 255 256 257 259 260 262 264 267 268 269 271 273 274 275 275 276 278 280 282 285 287 289 292 294 294 296 298 300 300 302 303 305
247 249 249 250 251 252 251 251 252 253 255 256 256 258 260 262 263 266 269 271 271 272 274 276 276 276 276 277 280 283 285 287 288 290 292 294 296 298 299 301 303 304 305
247 249 250 252 253 254 254 254 254 255 257 258 258 259 261 263 264 268 271 273 272 273 275 276 277 276 276 277 280 283 285 286 288 290 291 293 294 296 299 301 303 304 306
247 249 251 252 254 255 254 255 256 257 259 259 259 260 262 265 267 270 271 273 274 274 274 275 275 275 276 277 279 282 284 286 288 290 292 293 294 296 298 300 302 304 305
248 249 251 253 254 255 256 257 258 259 259 259 260 262 265 267 269 271 271 272 272 272 272 273 273 275 277 278 281 284 286 287 288 290 292 294 295 297 298 299 301 304 307
249 251 252 254 255 255 256 258 260 260 261 261 262 264 265 267 269 270 271 272 272 271 271 272 273 275 277 279 281 284 286 288 291 292 293 295 297 299 300 301 303 305 306
249 251 253 255 257 257 257 258 260 261 263 263 263 265 266 267 269 271 271 271 271 270 271 271 273 275 278 280 282 283 285 287 290 291 293 295 297 298 299 300 302 304 305
Height
5831 5832 5833 5834 5835 5836 5838 5839 5840 5841 5842 5843 5844 5845 5846 5847 5848 5849 5849 5849 5850 5850 5850 5850 5850 5850 5849 5849 5849 5848 5848 5847 5846 5845 5844 5842 5841 5839 5837 5835 5833 5831 5829
5829 5830 5831 5832 5833 5834 5836 5837 5838 5839 5840 5841 5842 5843 5845 5846 5846 5847 5847 5848 5848 5848 5849 5849 5848 5848 5848 5847 5847 5846 5846 5845 5844 5843 5842 5841 5839 5837 5835 5833 5831 5829 5827
5827 5828 5829 5830 5831 5832 5833 5835 5836 5837 5838 5839 5841 5842 5843 5844 5845 5845 5846 5846 5846 5847 5847 5847 5847 5846 5846 5846 5845 5845 5844 5843 5842 5841 5840 5839 5837 5835 5833 5831 5829 5827 5826
5825 5826 5826 5827 5828 5829 5831 5832 5833 5835 5836 5837 5838 5840 5841 5842 5842 5843 5844 5844 5845 5845 5845 5845 5845 5845 5845 5844 5843 5843 5842 5841 5840 5839 5838 5836 5835 5833 5831 5829 5827 5825 5823
5822 5823 5824 5825 5826 5827 5828 5830 5831 5832 5834 5835 5836 5837 5838 5839 5840 5841 5842 5842 5843 5843 5843 5843 5843 5843 5843 5842 5841 5841 5840 5839 5838 5836 5835 5834 5832 5830 5828 5826 5824 5822 5820
5820 5820 5821 5822 5823 5825 5826 5827 5828 5830 5831 5832 5833 5835 5836 5837 5838 5839 5840 5840 5841 5841 5841 5841 5841 5841 5840 5839 5839 5838 5837 5836 5835 5834 5832 5830 5828 5827 5824 5822 5820 5818 5816
5817 5818 5819 5820 5821 5822 5823 5825 5826 5827 5828 5829 5831 5832 5833 5834 5835 5836 5837 5838 5838 5839 5839 5839 5838 5838 5837 5837 5836 5835 5834 5833 5832 5830 5829 5827 5825 5823 5821 5819 5816 5814 5812
5814 5815 5816 5817 5818 5819 5821 5822 5823 5824 5825 5827 5828 5829 5830 5831 5832 5833 5834 5835 5835 5835 5836 5836 5835 5835 5834 5833 5832 5832 5831 5829 5828 5827 5825 5823 5821 5819 5817 5815 5812 5810 5808
5811 5812 5813 5814 5815 5816 5818 5819 5820 5821 5822 5824 5825 5826 5827 5828 5829 5830 5831 5831 5832 5832 5832 5832 5831 5831 5830 5830 5829 5828 5827 5826 5824 5823 5821 5819 5817 5815 5813 5811 5808 5806 5803
5807 5808 5810 5811 5812 5814 5815 5816 5817 5818 5819 5820 5822 5823 5824 5825 5826 5826 5827 5827 5828 5828 5828 5828 5827 5827 5826 5825 5825 5824 5823 5822 5820 5819 5817 5815 5813 5811 5809 5806 5804 5801 5798
5804 5805 5807 5808 5809 5810 5811 5812 5813 5814 5816 5817 5818 5819 5820 5821 5822 5822 5823 5823 5824 5824 5823 5823 5823 5822 5822 5821 5820 5820 5819 5817 5816 5814 5812 5810 5808 5806 5804 5801 5798 5796 5793
5801 5802 5803 5805 5806 5807 5808 5809 5810 5811 5812 5813 5814 5815 5816 5817 5818 5818 5819 5819 5819 5819 5819 5819 5818 5818 5817 5816 5816 5815 5813 5812 5811 5809 5807 5805 5803 5801 5798 5796 5793 5790 5787
5797 5798 5799 5801 5802 5803 5804 5805 5806 5807 5808 5809 5810 5811 5812 5813 5813 5814 5814 5814 5814 5814 5814 5814 5813 5813 5812 5812 5811 5809 5808 5807 5805 5804 5802 5800 5797 5795 5792 5790 5787 5784 5781
5792 5794 5795 5797 5798 5799 5800 5801 5802 5803 5804 5805 5805 5806 5807 5808 5809 5809 5809 5809 5809 5809 5809 5808 5808 5808 5807 5806 5805 5804 5803 5801 5800 5798 5796 5794 5791 5789 5786 5783 5781 5777 5774
5787 5789 5791 5792 5793 5794 5795 5797 5798 5799 5800 5800 5801 5802 5803 5804 5804 5804 5804 5804 5804 5804 5803 5803 5803 5802 5802 5801 5800 5798 5797 5795 5794 5792 5790 5787 5785 5783 5780 5777 5774 5771 5767
5782 5784 5786 5787 5788 5789 5790 5791 5792 5794 5794 5795 5796 5797 5797 5798 5798 5799 5799 5799 5798 5798 5798 5798 5797 5797 5796 5795 5794 5793 5791 5789 5787 5785 5783 5781 5778 5776 5773 5770 5767 5763 5760
5777 5779 5780 5782 5783 5784 5785 5786 5787 5788 5789 5790 5790 5791 5792 5793 5793 5793 5793 5793 5793 5792 5792 5792 5791 5791 5790 5789 5788 5786 5785 5783 5781 5779 5777 5774 5771 5769 5766 5763 5759 5756 5752
5771 5773 5775 5776 5777 5778 5779 5780 5781 5782 5783 5784 5785 5785 5786 5787 5787 5787 5787 5787 5787 5787 5786 5786 5785 5784 5783 5782 5781 5780 5778 5776 5774 5772 5770 5767 5764 5761 5758 5755 5752 5748 5744
5765 5767 5769 5770 5771 5772 5773 5774 5775 5776 5777 5778 5779 5779 5780 5780 5781 5781 5781 5781 5781 5780 5780 5779 5778 5777 5776 5775 5774 5772 5771 5769 5767 5765 5762 5759 5757 5754 5750 5747 5743 5739 5735
5759 5760 5762 5763 5765 5766 5767 5768 5769 5770 5770 5771 5772 5773 5773 5773 5774 5774 5774 5774 5773 5773 5772 5772 5771 5770 5769 5767 5766 5765 5763 5761 5759 5757 5754 5752 5749 5746 5742 5738 5734 5730 5726
5752 5754 5755 5757 5758 5759 5760 5761 5762 5763 5763 5764 5765 5766 5766 5767 5767 5767 5766 5766 5766 5765 5765 5764 5763 5762 5761 5759 5758 5757 5755 5753 5751 5749 5746 5743 5740 5737 5733 5730 5726 5721 5716
5745 5746 5748 5750 5751 5752 5753 5754 5755 5756 5756 5757 5758 5758 5759 5759 5759 5759 5759 5758 5758 5757 5756 5756 5755 5753 5752 5751 5750 5748 5747 5745 5742 5740 5737 5734 5731 5728 5724 5720 5716 5712 5707
5737 5739 5741 5742 5744 5745 5746 5747 5747 5748 5749 5750 5750 5751 5751 5751 5751 5751 5750 5750 5749 5749 5748 5747 5746 5745 5744 5742 5741 5739 5738 5736 5733 5731 5728 5725 5722 5718 5714 5710 5706 5702 5697
5729 5731 5733 5734 5736 5737 5738 5739 5740 5740 5741 5742 5742 5743 5743 5743 5743 5742 5742 5741 5740 5740 5739 5738 5737 5736 5735 5734 5732 5730 5728 5726 5724 5722 5719 5716 5712 5709 5705 5701 5696 5692 5688
5721 5723 5725 5726 5727 5728 5729 5730 5731 5732 5732 5733 5733 5733 5734 5734 5733 5733 5732 5731 5731 5730 5729 5729 5728 5727 5726 5724 5723 5721 5719 5717 5715 5712 5709 5706 5702 5699 5695 5691 5687 5683 5678
5712 5714 5715 5717 5718 5719 5720 5721 5721 5722 5723 5723 5723 5724 5724 5723 5723 5723 5722 5722 5721 5721 5720 5719 5718 5717 5716 5715 5713 5711 5710 5707 5705 5702 5699 5696 5692 5689 5685 5681 5677 5672 5668